Year,Month,Day,Hour,Minute,Value (Times are PST for temperature in C)
2013,04,23,00,00,6.60
2013,04,23,00,01,6.60
2013,04,23,00,02,6.60
2013,04,23,00,03,6.60
2013,04,23,00,04,6.50
2013,04,23,00,05,6.40
2013,04,23,00,06,6.40
2013,04,23,00,07,6.40
2013,04,23,00,08,6.30
2013,04,23,00,09,6.30
2013,04,23,00,10,6.30
2013,04,23,00,11,6.20
2013,04,23,00,12,6.20
2013,04,23,00,13,6.20
2013,04,23,00,14,6.20
2013,04,23,00,15,6.10
2013,04,23,00,16,6.10
2013,04,23,00,17,6.00
2013,04,23,00,18,6.00
2013,04,23,00,19,6.00
2013,04,23,00,20,5.90
2013,04,23,00,21,5.80
2013,04,23,00,22,5.80
2013,04,23,00,23,5.70
2013,04,23,00,24,5.70
2013,04,23,00,25,5.70
2013,04,23,00,26,5.60
2013,04,23,00,27,5.60
2013,04,23,00,28,5.50
2013,04,23,00,29,5.50
2013,04,23,00,30,5.40
2013,04,23,00,31,5.40
2013,04,23,00,32,5.30
2013,04,23,00,33,5.30
2013,04,23,00,34,5.30
2013,04,23,00,35,5.30
2013,04,23,00,36,5.20
2013,04,23,00,37,5.20
2013,04,23,00,38,5.10
2013,04,23,00,39,5.10
2013,04,23,00,40,5.10
2013,04,23,00,41,5.10
2013,04,23,00,42,5.10
2013,04,23,00,43,5.10
2013,04,23,00,44,5.10
2013,04,23,00,45,5.10
2013,04,23,00,46,5.10
2013,04,23,00,47,4.90
2013,04,23,00,48,4.90
2013,04,23,00,49,4.90
2013,04,23,00,50,4.90
2013,04,23,00,51,4.90
2013,04,23,00,52,4.90
2013,04,23,00,53,4.90
2013,04,23,00,54,4.90
2013,04,23,00,55,4.90
2013,04,23,00,56,4.80
2013,04,23,00,57,4.80
2013,04,23,00,58,4.80
2013,04,23,00,59,4.80
2013,04,23,01,00,4.80
2013,04,23,01,01,4.70
2013,04,23,01,02,4.70
2013,04,23,01,03,4.70
2013,04,23,01,04,4.70
2013,04,23,01,05,4.70
2013,04,23,01,06,4.70
2013,04,23,01,07,4.70
2013,04,23,01,08,4.70
2013,04,23,01,09,4.70
2013,04,23,01,10,4.70
2013,04,23,01,11,4.70
2013,04,23,01,12,4.60
2013,04,23,01,13,4.60
2013,04,23,01,14,4.60
2013,04,23,01,15,4.60
2013,04,23,01,16,4.60
2013,04,23,01,17,4.60
2013,04,23,01,18,4.60
2013,04,23,01,19,4.60
2013,04,23,01,20,4.60
2013,04,23,01,21,4.60
2013,04,23,01,22,4.60
2013,04,23,01,23,4.60
2013,04,23,01,24,4.60
2013,04,23,01,25,4.60
2013,04,23,01,26,4.60
2013,04,23,01,27,4.50
2013,04,23,01,28,4.60
2013,04,23,01,29,4.50
2013,04,23,01,30,4.50
2013,04,23,01,31,4.50
2013,04,23,01,32,4.50
2013,04,23,01,33,4.50
2013,04,23,01,34,4.50
2013,04,23,01,35,4.50
2013,04,23,01,36,4.50
2013,04,23,01,37,4.50
2013,04,23,01,38,4.40
2013,04,23,01,39,4.40
2013,04,23,01,40,4.40
2013,04,23,01,41,4.40
2013,04,23,01,42,4.40
2013,04,23,01,43,4.30
2013,04,23,01,44,4.30
2013,04,23,01,45,4.30
2013,04,23,01,46,4.30
2013,04,23,01,47,4.30
2013,04,23,01,48,4.20
2013,04,23,01,49,4.20
2013,04,23,01,50,4.20
2013,04,23,01,51,4.20
2013,04,23,01,52,4.20
2013,04,23,01,53,4.20
2013,04,23,01,54,4.20
2013,04,23,01,55,4.20
2013,04,23,01,56,4.20
2013,04,23,01,57,4.20
2013,04,23,01,58,4.20
2013,04,23,01,59,4.20
2013,04,23,02,00,4.10
2013,04,23,02,01,4.10
2013,04,23,02,02,4.10
2013,04,23,02,03,4.00
2013,04,23,02,04,4.00
2013,04,23,02,05,4.00
2013,04,23,02,06,4.00
2013,04,23,02,07,3.90
2013,04,23,02,08,3.90
2013,04,23,02,09,3.90
2013,04,23,02,10,3.90
2013,04,23,02,11,3.80
2013,04,23,02,12,3.80
2013,04,23,02,13,3.80
2013,04,23,02,14,3.80
2013,04,23,02,15,3.80
2013,04,23,02,16,3.80
2013,04,23,02,17,3.80
2013,04,23,02,18,3.80
2013,04,23,02,19,3.80
2013,04,23,02,20,3.80
2013,04,23,02,21,3.80
2013,04,23,02,22,3.80
2013,04,23,02,23,3.80
2013,04,23,02,24,3.80
2013,04,23,02,25,3.80
2013,04,23,02,26,3.80
2013,04,23,02,27,3.70
2013,04,23,02,28,3.70
2013,04,23,02,29,3.70
2013,04,23,02,30,3.70
2013,04,23,02,31,3.70
2013,04,23,02,32,3.70
2013,04,23,02,33,3.70
2013,04,23,02,34,3.60
2013,04,23,02,35,3.60
2013,04,23,02,36,3.60
2013,04,23,02,37,3.60
2013,04,23,02,38,3.50
2013,04,23,02,39,3.50
2013,04,23,02,40,3.50
2013,04,23,02,41,3.50
2013,04,23,02,42,3.50
2013,04,23,02,43,3.40
2013,04,23,02,44,3.40
2013,04,23,02,45,3.40
2013,04,23,02,46,3.40
2013,04,23,02,47,3.40
2013,04,23,02,48,3.30
2013,04,23,02,49,3.30
2013,04,23,02,50,3.30
2013,04,23,02,51,3.30
2013,04,23,02,52,3.30
2013,04,23,02,53,3.30
2013,04,23,02,54,3.20
2013,04,23,02,55,3.20
2013,04,23,02,56,3.20
2013,04,23,02,57,3.20
2013,04,23,02,58,3.10
2013,04,23,02,59,3.10
2013,04,23,03,00,3.10
2013,04,23,03,01,3.10
2013,04,23,03,02,3.10
2013,04,23,03,03,3.10
2013,04,23,03,04,3.10
2013,04,23,03,05,3.10
2013,04,23,03,06,3.10
2013,04,23,03,07,3.10
2013,04,23,03,08,3.10
2013,04,23,03,09,3.10
2013,04,23,03,10,3.10
2013,04,23,03,11,3.10
2013,04,23,03,12,3.10
2013,04,23,03,13,2.90
2013,04,23,03,14,2.90
2013,04,23,03,15,2.90
2013,04,23,03,16,2.90
2013,04,23,03,17,2.90
2013,04,23,03,18,2.90
2013,04,23,03,19,2.90
2013,04,23,03,20,2.90
2013,04,23,03,21,2.90
2013,04,23,03,22,2.90
2013,04,23,03,23,2.90
2013,04,23,03,24,2.90
2013,04,23,03,25,2.90
2013,04,23,03,26,2.90
2013,04,23,03,27,2.90
2013,04,23,03,28,2.90
2013,04,23,03,29,2.90
2013,04,23,03,30,2.80
2013,04,23,03,31,2.80
2013,04,23,03,32,2.80
2013,04,23,03,33,2.80
2013,04,23,03,34,2.80
2013,04,23,03,35,2.80
2013,04,23,03,36,2.80
2013,04,23,03,37,2.80
2013,04,23,03,38,2.80
2013,04,23,03,39,2.80
2013,04,23,03,40,2.80
2013,04,23,03,41,2.80
2013,04,23,03,42,2.80
2013,04,23,03,43,2.80
2013,04,23,03,44,2.80
2013,04,23,03,45,2.80
2013,04,23,03,46,2.70
2013,04,23,03,47,2.70
2013,04,23,03,48,2.70
2013,04,23,03,49,2.70
2013,04,23,03,50,2.70
2013,04,23,03,51,2.70
2013,04,23,03,52,2.70
2013,04,23,03,53,2.70
2013,04,23,03,54,2.60
2013,04,23,03,55,2.60
2013,04,23,03,56,2.60
2013,04,23,03,57,2.50
2013,04,23,03,58,2.50
2013,04,23,03,59,2.50
2013,04,23,04,00,2.50
2013,04,23,04,01,2.50
2013,04,23,04,02,2.40
2013,04,23,04,03,2.40
2013,04,23,04,04,2.40
2013,04,23,04,05,2.30
2013,04,23,04,06,2.30
2013,04,23,04,07,2.30
2013,04,23,04,08,2.30
2013,04,23,04,09,2.30
2013,04,23,04,10,2.30
2013,04,23,04,11,2.30
2013,04,23,04,12,2.30
2013,04,23,04,13,2.30
2013,04,23,04,14,2.30
2013,04,23,04,15,2.30
2013,04,23,04,16,2.30
2013,04,23,04,17,2.30
2013,04,23,04,18,2.30
2013,04,23,04,19,2.30
2013,04,23,04,20,2.30
2013,04,23,04,21,2.30
2013,04,23,04,22,2.30
2013,04,23,04,23,2.30
2013,04,23,04,24,2.40
2013,04,23,04,25,2.40
2013,04,23,04,26,2.40
2013,04,23,04,27,2.40
2013,04,23,04,28,2.40
2013,04,23,04,29,2.30
2013,04,23,04,30,2.30
2013,04,23,04,31,2.30
2013,04,23,04,32,2.30
2013,04,23,04,33,2.30
2013,04,23,04,34,2.30
2013,04,23,04,35,2.30
2013,04,23,04,36,2.20
2013,04,23,04,37,2.20
2013,04,23,04,38,2.20
2013,04,23,04,39,2.20
2013,04,23,04,40,2.20
2013,04,23,04,41,2.20
2013,04,23,04,42,2.20
2013,04,23,04,43,2.20
2013,04,23,04,44,2.20
2013,04,23,04,45,2.20
2013,04,23,04,46,2.20
2013,04,23,04,47,2.20
2013,04,23,04,48,2.20
2013,04,23,04,49,2.20
2013,04,23,04,50,2.20
2013,04,23,04,51,2.20
2013,04,23,04,52,2.20
2013,04,23,04,53,2.20
2013,04,23,04,54,2.20
2013,04,23,04,55,2.20
2013,04,23,04,56,2.20
2013,04,23,04,57,2.20
2013,04,23,04,58,2.10
2013,04,23,04,59,2.10
2013,04,23,05,00,2.10
2013,04,23,05,01,2.20
2013,04,23,05,02,2.20
2013,04,23,05,03,2.20
2013,04,23,05,04,2.20
2013,04,23,05,05,2.20
2013,04,23,05,06,2.20
2013,04,23,05,07,2.20
2013,04,23,05,08,2.20
2013,04,23,05,09,2.20
2013,04,23,05,10,2.20
2013,04,23,05,11,2.20
2013,04,23,05,12,2.20
2013,04,23,05,13,2.20
2013,04,23,05,14,2.20
2013,04,23,05,15,2.20
2013,04,23,05,16,2.20
2013,04,23,05,17,2.20
2013,04,23,05,18,2.20
2013,04,23,05,19,2.20
2013,04,23,05,20,2.10
2013,04,23,05,21,2.10
2013,04,23,05,22,2.10
2013,04,23,05,23,2.10
2013,04,23,05,24,2.10
2013,04,23,05,25,2.10
2013,04,23,05,26,2.10
2013,04,23,05,27,2.00
2013,04,23,05,28,2.00
2013,04,23,05,29,2.00
2013,04,23,05,30,2.00
2013,04,23,05,31,2.00
2013,04,23,05,32,2.00
2013,04,23,05,33,2.00
2013,04,23,05,34,2.10
2013,04,23,05,35,2.10
2013,04,23,05,36,2.10
2013,04,23,05,37,2.00
2013,04,23,05,38,2.00
2013,04,23,05,39,2.00
2013,04,23,05,40,2.00
2013,04,23,05,41,2.00
2013,04,23,05,42,1.90
2013,04,23,05,43,1.90
2013,04,23,05,44,1.90
2013,04,23,05,45,1.90
2013,04,23,05,46,1.90
2013,04,23,05,47,1.90
2013,04,23,05,48,1.90
2013,04,23,05,49,1.90
2013,04,23,05,50,1.80
2013,04,23,05,51,1.80
2013,04,23,05,52,1.80
2013,04,23,05,53,1.80
2013,04,23,05,54,1.80
2013,04,23,05,55,1.80
2013,04,23,05,56,1.80
2013,04,23,05,57,1.80
2013,04,23,05,58,1.80
2013,04,23,05,59,1.80
2013,04,23,06,00,1.80
2013,04,23,06,01,1.80
2013,04,23,06,02,1.90
2013,04,23,06,03,1.90
2013,04,23,06,04,1.90
2013,04,23,06,05,1.90
2013,04,23,06,06,2.00
2013,04,23,06,07,2.00
2013,04,23,06,08,2.00
2013,04,23,06,09,2.00
2013,04,23,06,10,2.00
2013,04,23,06,11,2.00
2013,04,23,06,12,2.00
2013,04,23,06,13,2.00
2013,04,23,06,14,2.00
2013,04,23,06,15,2.00
2013,04,23,06,16,2.10
2013,04,23,06,17,2.10
2013,04,23,06,18,2.10
2013,04,23,06,19,2.10
2013,04,23,06,20,2.10
2013,04,23,06,21,2.20
2013,04,23,06,22,2.20
2013,04,23,06,23,2.20
2013,04,23,06,24,2.20
2013,04,23,06,25,2.20
2013,04,23,06,26,2.20
2013,04,23,06,27,2.20
2013,04,23,06,28,2.20
2013,04,23,06,29,2.20
2013,04,23,06,30,2.20
2013,04,23,06,31,2.20
2013,04,23,06,32,2.20
2013,04,23,06,33,2.20
2013,04,23,06,34,2.20
2013,04,23,06,35,2.20
2013,04,23,06,36,2.20
2013,04,23,06,37,2.20
2013,04,23,06,38,2.20
2013,04,23,06,39,2.20
2013,04,23,06,40,2.20
2013,04,23,06,41,2.20
2013,04,23,06,42,2.30
2013,04,23,06,43,2.30
2013,04,23,06,44,2.40
2013,04,23,06,45,2.50
2013,04,23,06,46,2.50
2013,04,23,06,47,2.60
2013,04,23,06,48,2.60
2013,04,23,06,49,2.70
2013,04,23,06,50,2.70
2013,04,23,06,51,2.70
2013,04,23,06,52,2.70
2013,04,23,06,53,2.70
2013,04,23,06,54,2.80
2013,04,23,06,55,2.80
2013,04,23,06,56,2.90
2013,04,23,06,57,2.90
2013,04,23,06,58,2.90
2013,04,23,06,59,2.90
2013,04,23,07,00,2.90
2013,04,23,07,01,2.90
2013,04,23,07,02,3.00
2013,04,23,07,03,3.10
2013,04,23,07,04,3.10
2013,04,23,07,05,3.10
2013,04,23,07,06,3.10
2013,04,23,07,07,3.10
2013,04,23,07,08,3.10
2013,04,23,07,09,3.10
2013,04,23,07,10,3.20
2013,04,23,07,11,3.20
2013,04,23,07,12,3.30
2013,04,23,07,13,3.30
2013,04,23,07,14,3.30
2013,04,23,07,15,3.40
2013,04,23,07,16,3.40
2013,04,23,07,17,3.50
2013,04,23,07,18,3.60
2013,04,23,07,19,3.70
2013,04,23,07,20,3.80
2013,04,23,07,21,3.80
2013,04,23,07,22,3.90
2013,04,23,07,23,4.00
2013,04,23,07,24,4.00
2013,04,23,07,25,4.00
2013,04,23,07,26,4.10
2013,04,23,07,27,4.10
2013,04,23,07,28,4.20
2013,04,23,07,29,4.20
2013,04,23,07,30,4.20
2013,04,23,07,31,4.20
2013,04,23,07,32,4.30
2013,04,23,07,33,4.30
2013,04,23,07,34,4.40
2013,04,23,07,35,4.40
2013,04,23,07,36,4.50
2013,04,23,07,37,4.50
2013,04,23,07,38,4.60
2013,04,23,07,39,4.60
2013,04,23,07,40,4.70
2013,04,23,07,41,4.70
2013,04,23,07,42,4.80
2013,04,23,07,43,4.80
2013,04,23,07,44,4.80
2013,04,23,07,45,4.80
2013,04,23,07,46,4.90
2013,04,23,07,47,4.90
2013,04,23,07,48,4.90
2013,04,23,07,49,4.90
2013,04,23,07,50,4.90
2013,04,23,07,51,5.00
2013,04,23,07,52,5.10
2013,04,23,07,53,5.10
2013,04,23,07,54,5.10
2013,04,23,07,55,5.10
2013,04,23,07,56,5.20
2013,04,23,07,57,5.20
2013,04,23,07,58,5.30
2013,04,23,07,59,5.30
2013,04,23,08,00,5.30
2013,04,23,08,01,5.40
2013,04,23,08,02,5.50
2013,04,23,08,03,5.50
2013,04,23,08,04,5.60
2013,04,23,08,05,5.70
2013,04,23,08,06,5.70
2013,04,23,08,07,5.80
2013,04,23,08,08,5.90
2013,04,23,08,09,6.00
2013,04,23,08,10,6.00
2013,04,23,08,11,6.10
2013,04,23,08,12,6.20
2013,04,23,08,13,6.20
2013,04,23,08,14,6.20
2013,04,23,08,15,6.30
2013,04,23,08,16,6.30
2013,04,23,08,17,6.30
2013,04,23,08,18,6.40
2013,04,23,08,19,6.40
2013,04,23,08,20,6.50
2013,04,23,08,21,6.60
2013,04,23,08,22,6.60
2013,04,23,08,23,6.70
2013,04,23,08,24,6.80
2013,04,23,08,25,6.80
2013,04,23,08,26,6.90
2013,04,23,08,27,6.90
2013,04,23,08,28,7.00
2013,04,23,08,29,7.10
2013,04,23,08,30,7.10
2013,04,23,08,31,7.20
2013,04,23,08,32,7.30
2013,04,23,08,33,7.40
2013,04,23,08,34,7.50
2013,04,23,08,35,7.50
2013,04,23,08,36,7.60
2013,04,23,08,37,7.70
2013,04,23,08,38,7.80
2013,04,23,08,39,7.80
2013,04,23,08,40,7.90
2013,04,23,08,41,8.00
2013,04,23,08,42,8.00
2013,04,23,08,43,8.10
2013,04,23,08,44,8.10
2013,04,23,08,45,8.10
2013,04,23,08,46,8.20
2013,04,23,08,47,8.20
2013,04,23,08,48,8.20
2013,04,23,08,49,8.20
2013,04,23,08,50,8.20
2013,04,23,08,51,8.30
2013,04,23,08,52,8.30
2013,04,23,08,53,8.30
2013,04,23,08,54,8.30
2013,04,23,08,55,8.40
2013,04,23,08,56,8.40
2013,04,23,08,57,8.50
2013,04,23,08,58,8.50
2013,04,23,08,59,8.50
2013,04,23,09,00,8.60
2013,04,23,09,01,8.60
2013,04,23,09,02,8.60
2013,04,23,09,03,8.50
2013,04,23,09,04,8.60
2013,04,23,09,05,8.60
2013,04,23,09,06,8.50
2013,04,23,09,07,8.50
2013,04,23,09,08,8.50
2013,04,23,09,09,8.50
2013,04,23,09,10,8.50
2013,04,23,09,11,8.50
2013,04,23,09,12,8.50
2013,04,23,09,13,8.50
2013,04,23,09,14,8.60
2013,04,23,09,15,8.60
2013,04,23,09,16,8.70
2013,04,23,09,17,8.70
2013,04,23,09,18,8.70
2013,04,23,09,19,8.70
2013,04,23,09,20,8.70
2013,04,23,09,21,8.70
2013,04,23,09,22,8.70
2013,04,23,09,23,8.80
2013,04,23,09,24,8.80
2013,04,23,09,25,8.80
2013,04,23,09,26,8.90
2013,04,23,09,27,9.00
2013,04,23,09,28,9.00
2013,04,23,09,29,9.10
2013,04,23,09,30,9.20
2013,04,23,09,31,9.20
2013,04,23,09,32,9.30
2013,04,23,09,33,9.30
2013,04,23,09,34,9.40
2013,04,23,09,35,9.50
2013,04,23,09,36,9.50
2013,04,23,09,37,9.50
2013,04,23,09,38,9.60
2013,04,23,09,39,9.70
2013,04,23,09,40,9.70
2013,04,23,09,41,9.80
2013,04,23,09,42,9.90
2013,04,23,09,43,10.00
2013,04,23,09,44,10.10
2013,04,23,09,45,10.20
2013,04,23,09,46,10.20
2013,04,23,09,47,10.30
2013,04,23,09,48,10.30
2013,04,23,09,49,10.40
2013,04,23,09,50,10.40
2013,04,23,09,51,10.50
2013,04,23,09,52,10.60
2013,04,23,09,53,10.70
2013,04,23,09,54,10.70
2013,04,23,09,55,10.80
2013,04,23,09,56,10.80
2013,04,23,09,57,10.80
2013,04,23,09,58,10.90
2013,04,23,09,59,10.90
2013,04,23,10,00,11.10
2013,04,23,10,01,11.10
2013,04,23,10,02,11.20
2013,04,23,10,03,11.30
2013,04,23,10,04,11.40
2013,04,23,10,05,11.40
2013,04,23,10,06,11.40
2013,04,23,10,07,11.40
2013,04,23,10,08,11.40
2013,04,23,10,09,11.40
2013,04,23,10,10,11.40
2013,04,23,10,11,11.30
2013,04,23,10,12,11.30
2013,04,23,10,13,11.30
2013,04,23,10,14,11.20
2013,04,23,10,15,11.30
2013,04,23,10,16,11.30
2013,04,23,10,17,11.20
2013,04,23,10,18,11.20
2013,04,23,10,19,11.20
2013,04,23,10,20,11.20
2013,04,23,10,21,11.20
2013,04,23,10,22,11.20
2013,04,23,10,23,11.20
2013,04,23,10,24,11.20
2013,04,23,10,25,11.20
2013,04,23,10,26,11.20
2013,04,23,10,27,11.20
2013,04,23,10,28,11.20
2013,04,23,10,29,11.20
2013,04,23,10,30,11.20
2013,04,23,10,31,11.30
2013,04,23,10,32,11.30
2013,04,23,10,33,11.40
2013,04,23,10,34,11.40
2013,04,23,10,35,11.40
2013,04,23,10,36,11.40
2013,04,23,10,37,11.40
2013,04,23,10,38,11.40
2013,04,23,10,39,11.40
2013,04,23,10,40,11.40
2013,04,23,10,41,11.50
2013,04,23,10,42,11.60
2013,04,23,10,43,11.60
2013,04,23,10,44,11.60
2013,04,23,10,45,11.60
2013,04,23,10,46,11.70
2013,04,23,10,47,11.70
2013,04,23,10,48,11.70
2013,04,23,10,49,11.70
2013,04,23,10,50,11.80
2013,04,23,10,51,11.80
2013,04,23,10,52,11.70
2013,04,23,10,53,11.60
2013,04,23,10,54,11.60
2013,04,23,10,55,11.60
2013,04,23,10,56,11.60
2013,04,23,10,57,11.60
2013,04,23,10,58,11.60
2013,04,23,10,59,11.60
2013,04,23,11,00,11.70
2013,04,23,11,01,11.70
2013,04,23,11,02,11.60
2013,04,23,11,03,11.60
2013,04,23,11,04,11.50
2013,04,23,11,05,11.40
2013,04,23,11,06,11.30
2013,04,23,11,07,11.30
2013,04,23,11,08,11.40
2013,04,23,11,09,11.40
2013,04,23,11,10,11.40
2013,04,23,11,11,11.40
2013,04,23,11,12,11.40
2013,04,23,11,13,11.40
2013,04,23,11,14,11.40
2013,04,23,11,15,11.40
2013,04,23,11,16,11.40
2013,04,23,11,17,11.40
2013,04,23,11,18,11.30
2013,04,23,11,19,11.20
2013,04,23,11,20,11.20
2013,04,23,11,21,11.10
2013,04,23,11,22,11.00
2013,04,23,11,23,10.90
2013,04,23,11,24,10.90
2013,04,23,11,25,11.00
2013,04,23,11,26,11.00
2013,04,23,11,27,10.90
2013,04,23,11,28,10.90
2013,04,23,11,29,10.90
2013,04,23,11,30,10.90
2013,04,23,11,31,11.00
2013,04,23,11,32,11.10
2013,04,23,11,33,11.10
2013,04,23,11,34,11.20
2013,04,23,11,35,11.30
2013,04,23,11,36,11.50
2013,04,23,11,37,11.70
2013,04,23,11,38,11.80
2013,04,23,11,39,11.80
2013,04,23,11,40,11.80
2013,04,23,11,41,11.70
2013,04,23,11,42,11.70
2013,04,23,11,43,11.70
2013,04,23,11,44,11.60
2013,04,23,11,45,11.60
2013,04,23,11,46,11.50
2013,04,23,11,47,11.40
2013,04,23,11,48,11.30
2013,04,23,11,49,11.30
2013,04,23,11,50,11.30
2013,04,23,11,51,11.30
2013,04,23,11,52,11.30
2013,04,23,11,53,11.20
2013,04,23,11,54,11.20
2013,04,23,11,55,11.40
2013,04,23,11,56,11.40
2013,04,23,11,57,11.60
2013,04,23,11,58,11.70
2013,04,23,11,59,11.80
2013,04,23,12,00,12.00
2013,04,23,12,01,12.10
2013,04,23,12,02,12.10
2013,04,23,12,03,12.00
2013,04,23,12,04,11.90
2013,04,23,12,05,11.80
2013,04,23,12,06,11.70
2013,04,23,12,07,11.60
2013,04,23,12,08,11.70
2013,04,23,12,09,11.70
2013,04,23,12,10,11.60
2013,04,23,12,11,11.70
2013,04,23,12,12,11.80
2013,04,23,12,13,11.80
2013,04,23,12,14,11.90
2013,04,23,12,15,12.00
2013,04,23,12,16,12.00
2013,04,23,12,17,11.90
2013,04,23,12,18,11.90
2013,04,23,12,19,12.00
2013,04,23,12,20,12.00
2013,04,23,12,21,12.00
2013,04,23,12,22,12.00
2013,04,23,12,23,12.00
2013,04,23,12,24,12.10
2013,04,23,12,25,12.00
2013,04,23,12,26,12.00
2013,04,23,12,27,12.00
2013,04,23,12,28,12.20
2013,04,23,12,29,12.20
2013,04,23,12,30,12.20
2013,04,23,12,31,12.30
2013,04,23,12,32,12.40
2013,04,23,12,33,12.50
2013,04,23,12,34,12.70
2013,04,23,12,35,12.70
2013,04,23,12,36,12.70
2013,04,23,12,37,12.80
2013,04,23,12,38,12.80
2013,04,23,12,39,12.70
2013,04,23,12,40,12.60
2013,04,23,12,41,12.70
2013,04,23,12,42,12.90
2013,04,23,12,43,13.00
2013,04,23,12,44,13.00
2013,04,23,12,45,13.00
2013,04,23,12,46,13.00
2013,04,23,12,47,13.10
2013,04,23,12,48,13.10
2013,04,23,12,49,13.00
2013,04,23,12,50,12.90
2013,04,23,12,51,13.00
2013,04,23,12,52,13.10
2013,04,23,12,53,13.10
2013,04,23,12,54,13.00
2013,04,23,12,55,12.80
2013,04,23,12,56,12.70
2013,04,23,12,57,12.70
2013,04,23,12,58,12.90
2013,04,23,12,59,13.00
2013,04,23,13,00,13.10
2013,04,23,13,01,13.20
2013,04,23,13,02,13.00
2013,04,23,13,03,12.90
2013,04,23,13,04,12.80
2013,04,23,13,05,12.70
2013,04,23,13,06,12.70
2013,04,23,13,07,12.80
2013,04,23,13,08,12.80
2013,04,23,13,09,12.90
2013,04,23,13,10,12.90
2013,04,23,13,11,12.80
2013,04,23,13,12,12.90
2013,04,23,13,13,12.90
2013,04,23,13,14,12.80
2013,04,23,13,15,12.70
2013,04,23,13,16,12.60
2013,04,23,13,17,12.60
2013,04,23,13,18,12.70
2013,04,23,13,19,12.80
2013,04,23,13,20,13.00
2013,04,23,13,21,13.10
2013,04,23,13,22,13.30
2013,04,23,13,23,13.50
2013,04,23,13,24,13.60
2013,04,23,13,25,13.70
2013,04,23,13,26,13.80
2013,04,23,13,27,13.80
2013,04,23,13,28,13.60
2013,04,23,13,29,13.20
2013,04,23,13,30,13.00
2013,04,23,13,31,12.90
2013,04,23,13,32,13.00
2013,04,23,13,33,13.20
2013,04,23,13,34,13.40
2013,04,23,13,35,13.50
2013,04,23,13,36,13.50
2013,04,23,13,37,13.60
2013,04,23,13,38,13.50
2013,04,23,13,39,13.30
2013,04,23,13,40,13.40
2013,04,23,13,41,13.50
2013,04,23,13,42,13.60
2013,04,23,13,43,13.70
2013,04,23,13,44,13.80
2013,04,23,13,45,13.90
2013,04,23,13,46,13.90
2013,04,23,13,47,13.80
2013,04,23,13,48,13.70
2013,04,23,13,49,13.70
2013,04,23,13,50,13.70
2013,04,23,13,51,13.70
2013,04,23,13,52,13.70
2013,04,23,13,53,13.70
2013,04,23,13,54,13.70
2013,04,23,13,55,13.80
2013,04,23,13,56,13.90
2013,04,23,13,57,13.80
2013,04,23,13,58,13.70
2013,04,23,13,59,13.70
2013,04,23,14,00,13.70
2013,04,23,14,01,13.70
2013,04,23,14,02,13.70
2013,04,23,14,03,13.70
2013,04,23,14,04,13.60
2013,04,23,14,05,13.50
2013,04,23,14,06,13.50
2013,04,23,14,07,13.60
2013,04,23,14,08,13.80
2013,04,23,14,09,14.00
2013,04,23,14,10,14.10
2013,04,23,14,11,14.10
2013,04,23,14,12,14.00
2013,04,23,14,13,14.10
2013,04,23,14,14,14.20
2013,04,23,14,15,14.20
2013,04,23,14,16,14.20
2013,04,23,14,17,14.10
2013,04,23,14,18,14.10
2013,04,23,14,19,14.10
2013,04,23,14,20,14.20
2013,04,23,14,21,14.20
2013,04,23,14,22,14.30
2013,04,23,14,23,14.30
2013,04,23,14,24,14.20
2013,04,23,14,25,14.20
2013,04,23,14,26,14.20
2013,04,23,14,27,14.20
2013,04,23,14,28,14.20
2013,04,23,14,29,14.20
2013,04,23,14,30,14.30
2013,04,23,14,31,14.30
2013,04,23,14,32,14.50
2013,04,23,14,33,14.50
2013,04,23,14,34,14.60
2013,04,23,14,35,14.70
2013,04,23,14,36,14.70
2013,04,23,14,37,14.80
2013,04,23,14,38,14.80
2013,04,23,14,39,14.80
2013,04,23,14,40,14.80
2013,04,23,14,41,15.00
2013,04,23,14,42,15.00
2013,04,23,14,43,14.90
2013,04,23,14,44,14.90
2013,04,23,14,45,14.90
2013,04,23,14,46,14.90
2013,04,23,14,47,14.90
2013,04,23,14,48,15.00
2013,04,23,14,49,15.10
2013,04,23,14,50,15.20
2013,04,23,14,51,15.20
2013,04,23,14,52,15.10
2013,04,23,14,53,15.00
2013,04,23,14,54,15.00
2013,04,23,14,55,14.90
2013,04,23,14,56,15.00
2013,04,23,14,57,14.90
2013,04,23,14,58,14.70
2013,04,23,14,59,14.60
2013,04,23,15,00,14.70
2013,04,23,15,01,14.80
2013,04,23,15,02,14.70
2013,04,23,15,03,14.60
2013,04,23,15,04,14.50
2013,04,23,15,05,14.60
2013,04,23,15,06,14.70
2013,04,23,15,07,14.70
2013,04,23,15,08,14.70
2013,04,23,15,09,14.50
2013,04,23,15,10,14.50
2013,04,23,15,11,14.50
2013,04,23,15,12,14.50
2013,04,23,15,13,14.60
2013,04,23,15,14,14.70
2013,04,23,15,15,14.70
2013,04,23,15,16,14.80
2013,04,23,15,17,14.90
2013,04,23,15,18,15.00
2013,04,23,15,19,15.00
2013,04,23,15,20,15.00
2013,04,23,15,21,15.00
2013,04,23,15,22,15.00
2013,04,23,15,23,15.20
2013,04,23,15,24,15.30
2013,04,23,15,25,15.30
2013,04,23,15,26,15.30
2013,04,23,15,27,15.20
2013,04,23,15,28,15.20
2013,04,23,15,29,15.10
2013,04,23,15,30,15.20
2013,04,23,15,31,15.10
2013,04,23,15,32,15.10
2013,04,23,15,33,15.10
2013,04,23,15,34,15.00
2013,04,23,15,35,14.90
2013,04,23,15,36,14.90
2013,04,23,15,37,14.90
2013,04,23,15,38,14.90
2013,04,23,15,39,15.00
2013,04,23,15,40,15.10
2013,04,23,15,41,15.20
2013,04,23,15,42,15.30
2013,04,23,15,43,15.50
2013,04,23,15,44,15.50
2013,04,23,15,45,15.40
2013,04,23,15,46,15.40
2013,04,23,15,47,15.30
2013,04,23,15,48,15.30
2013,04,23,15,49,15.20
2013,04,23,15,50,15.20
2013,04,23,15,51,15.40
2013,04,23,15,52,15.60
2013,04,23,15,53,15.80
2013,04,23,15,54,16.10
2013,04,23,15,55,16.20
2013,04,23,15,56,16.30
2013,04,23,15,57,16.30
2013,04,23,15,58,16.30
2013,04,23,15,59,16.40
2013,04,23,16,00,16.40
2013,04,23,16,01,16.40
2013,04,23,16,02,16.40
2013,04,23,16,03,16.40
2013,04,23,16,04,16.40
2013,04,23,16,05,16.40
2013,04,23,16,06,16.40
2013,04,23,16,07,16.50
2013,04,23,16,08,16.60
2013,04,23,16,09,16.60
2013,04,23,16,10,16.60
2013,04,23,16,11,16.40
2013,04,23,16,12,16.40
2013,04,23,16,13,16.40
2013,04,23,16,14,16.40
2013,04,23,16,15,16.30
2013,04,23,16,16,16.20
2013,04,23,16,17,16.10
2013,04,23,16,18,16.10
2013,04,23,16,19,16.10
2013,04,23,16,20,16.00
2013,04,23,16,21,16.10
2013,04,23,16,22,16.20
2013,04,23,16,23,16.30
2013,04,23,16,24,16.30
2013,04,23,16,25,16.30
2013,04,23,16,26,16.10
2013,04,23,16,27,16.10
2013,04,23,16,28,16.10
2013,04,23,16,29,16.20
2013,04,23,16,30,16.30
2013,04,23,16,31,16.40
2013,04,23,16,32,16.40
2013,04,23,16,33,16.50
2013,04,23,16,34,16.50
2013,04,23,16,35,16.40
2013,04,23,16,36,16.40
2013,04,23,16,37,16.50
2013,04,23,16,38,16.60
2013,04,23,16,39,16.50
2013,04,23,16,40,16.40
2013,04,23,16,41,16.30
2013,04,23,16,42,16.20
2013,04,23,16,43,16.20
2013,04,23,16,44,16.20
2013,04,23,16,45,16.20
2013,04,23,16,46,16.20
2013,04,23,16,47,16.20
2013,04,23,16,48,16.20
2013,04,23,16,49,16.30
2013,04,23,16,50,16.40
2013,04,23,16,51,16.40
2013,04,23,16,52,16.40
2013,04,23,16,53,16.30
2013,04,23,16,54,16.40
2013,04,23,16,55,16.50
2013,04,23,16,56,16.60
2013,04,23,16,57,16.60
2013,04,23,16,58,16.60
2013,04,23,16,59,16.60
2013,04,23,17,00,16.60
2013,04,23,17,01,16.60
2013,04,23,17,02,16.70
2013,04,23,17,03,16.70
2013,04,23,17,04,16.70
2013,04,23,17,05,16.60
2013,04,23,17,06,16.60
2013,04,23,17,07,16.60
2013,04,23,17,08,16.50
2013,04,23,17,09,16.40
2013,04,23,17,10,16.40
2013,04,23,17,11,16.40
2013,04,23,17,12,16.30
2013,04,23,17,13,16.20
2013,04,23,17,14,16.10
2013,04,23,17,15,16.10
2013,04,23,17,16,16.10
2013,04,23,17,17,16.10
2013,04,23,17,18,16.10
2013,04,23,17,19,16.10
2013,04,23,17,20,16.20
2013,04,23,17,21,16.30
2013,04,23,17,22,16.40
2013,04,23,17,23,16.40
2013,04,23,17,24,16.50
2013,04,23,17,25,16.60
2013,04,23,17,26,16.70
2013,04,23,17,27,16.60
2013,04,23,17,28,16.50
2013,04,23,17,29,16.40
2013,04,23,17,30,16.40
2013,04,23,17,31,16.40
2013,04,23,17,32,16.40
2013,04,23,17,33,16.40
2013,04,23,17,34,16.40
2013,04,23,17,35,16.40
2013,04,23,17,36,16.40
2013,04,23,17,37,16.40
2013,04,23,17,38,16.40
2013,04,23,17,39,16.40
2013,04,23,17,40,16.30
2013,04,23,17,41,16.30
2013,04,23,17,42,16.30
2013,04,23,17,43,16.30
2013,04,23,17,44,16.20